| time (UTC) | temp F | wind direction | speed knots | gust knots | rain 1hr in | rain 24hr in | rain mn in | humidity % | barometer mb |
| 20260503021706 | 64 | 5 | 0.0 | 0.0 | 0.00 | 0.00 | 0.00 | 15 | 1017.7 |
| 20260503021206 | 65 | 5 | 0.0 | 0.0 | 0.00 | 0.00 | 0.00 | 15 | 1017.7 |
| 20260503020705 | 65 | 5 | 0.0 | 0.0 | 0.00 | 0.00 | 0.00 | 14 | 1017.6 |
| 20260503015706 | 66 | 5 | 0.0 | 0.0 | 0.00 | 0.00 | 0.00 | 12 | 1017.5 |
| 20260503015205 | 67 | 5 | 0.0 | 0.0 | 0.00 | 0.00 | 0.00 | 11 | 1017.5 |
| 20260503014706 | 67 | 5 | 0.0 | 0.0 | 0.00 | 0.00 | 0.00 | 11 | 1017.5 |
| 20260503014205 | 68 | 5 | 0.0 | 0.0 | 0.00 | 0.00 | 0.00 | 11 | 1017.4 |
| 20260503012705 | 69 | 5 | 0.9 | 2.6 | 0.00 | 0.00 | 0.00 | 11 | 1017.4 |
| 20260503011706 | 69 | 92 | 0.0 | 0.0 | 0.00 | 0.00 | 0.00 | 10 | 1017.3 |
| 20260503011206 | 69 | 92 | 0.0 | 0.0 | 0.00 | 0.00 | 0.00 | 10 | 1017.3 |
| 20260503010705 | 70 | 92 | 0.9 | 1.7 | 0.00 | 0.00 | 0.00 | 10 | 1017.4 |
| 20260503005705 | 70 | 82 | 0.9 | 2.6 | 0.00 | 0.00 | 0.00 | 9 | 1017.3 |
| 20260503004705 | 71 | 101 | 0.9 | 4.3 | 0.00 | 0.00 | 0.00 | 8 | 1017.3 |
| 20260503004205 | 72 | 139 | 0.0 | 0.0 | 0.00 | 0.00 | 0.00 | 10 | 1017.3 |
| 20260503003706 | 72 | 139 | 0.9 | 1.7 | 0.00 | 0.00 | 0.00 | 9 | 1017.3 |
| 20260503003205 | 72 | 131 | 0.9 | 1.7 | 0.00 | 0.00 | 0.00 | 10 | 1017.3 |
| 20260503002706 | 72 | 103 | 0.9 | 2.6 | 0.00 | 0.00 | 0.00 | 9 | 1017.3 |
| 20260503002205 | 72 | 122 | 0.0 | 2.6 | 0.00 | 0.00 | 0.00 | 10 | 1017.4 |
| 20260503001706 | 72 | 16 | 1.7 | 4.3 | 0.00 | 0.00 | 0.00 | 9 | 1017.4 |
| 20260503001205 | 72 | 114 | 0.9 | 2.6 | 0.00 | 0.00 | 0.00 | 9 | 1017.4 |
| 20260503000706 | 73 | 100 | 1.7 | 2.6 | 0.00 | 0.00 | 0.00 | 8 | 1017.4 |
| 20260503000205 | 73 | 169 | 0.0 | 1.7 | 0.00 | 0.00 | 0.00 | 8 | 1017.5 |
| 20260502235705 | 73 | 169 | 1.7 | 5.2 | 0.00 | 0.00 | 0.00 | 9 | 1017.5 |
| 20260502234705 | 73 | 137 | 1.7 | 4.3 | 0.00 | 0.00 | 0.00 | 9 | 1017.6 |
| 20260502234205 | 73 | 143 | 1.7 | 6.1 | 0.00 | 0.00 | 0.00 | 9 | 1017.6 |
| 20260502232705 | 73 | 100 | 0.9 | 10.4 | 0.00 | 0.00 | 0.00 | 10 | 1017.6 |
| 20260502232206 | 74 | 109 | 0.9 | 2.6 | 0.00 | 0.00 | 0.00 | 10 | 1017.6 |
| 20260502231705 | 73 | 119 | 0.9 | 2.6 | 0.00 | 0.00 | 0.00 | 9 | 1017.6 |
| 20260502231205 | 73 | 119 | 0.9 | 5.2 | 0.00 | 0.00 | 0.00 | 9 | 1017.7 |
| 20260502230205 | 73 | 127 | 1.7 | 4.3 | 0.00 | 0.00 | 0.00 | 10 | 1017.8 |
| 20260502225705 | 73 | 83 | 3.5 | 7.0 | 0.00 | 0.00 | 0.00 | 9 | 1017.8 |
| 20260502225205 | 73 | 117 | 1.7 | 4.3 | 0.00 | 0.00 | 0.00 | 8 | 1017.8 |
| 20260502224705 | 73 | 146 | 0.9 | 5.2 | 0.00 | 0.00 | 0.00 | 10 | 1017.8 |
| 20260502224206 | 73 | 129 | 1.7 | 4.3 | 0.00 | 0.00 | 0.00 | 9 | 1017.9 |
| 20260502223705 | 73 | 27 | 2.6 | 6.1 | 0.00 | 0.00 | 0.00 | 9 | 1017.9 |
| 20260502223205 | 73 | 97 | 0.9 | 2.6 | 0.00 | 0.00 | 0.00 | 9 | 1018.0 |
| 20260502222705 | 73 | 98 | 3.5 | 8.7 | 0.00 | 0.00 | 0.00 | 9 | 1018.0 |
| 20260502222205 | 73 | 138 | 1.7 | 2.6 | 0.00 | 0.00 | 0.00 | 9 | 1018.1 |
| 20260502221206 | 73 | 135 | 1.7 | 6.1 | 0.00 | 0.00 | 0.00 | 11 | 1018.1 |
| 20260502220706 | 73 | 192 | 2.6 | 5.2 | 0.00 | 0.00 | 0.00 | 8 | 1018.2 |
| 20260502220205 | 73 | 167 | 1.7 | 6.1 | 0.00 | 0.00 | 0.00 | 9 | 1018.3 |
| 20260502215705 | 73 | 90 | 0.0 | 6.1 | 0.00 | 0.00 | 0.00 | 10 | 1018.4 |
| 20260502215205 | 73 | 146 | 1.7 | 2.6 | 0.00 | 0.00 | 0.00 | 10 | 1018.4 |
| 20260502214705 | 73 | 36 | 2.6 | 6.1 | 0.00 | 0.00 | 0.00 | 9 | 1018.6 |
| 20260502213705 | 74 | 56 | 2.6 | 6.1 | 0.00 | 0.00 | 0.00 | 9 | 1018.7 |
| 20260502213205 | 74 | 163 | 1.7 | 5.2 | 0.00 | 0.00 | 0.00 | 10 | 1018.8 |
| 20260502212705 | 74 | 173 | 1.7 | 6.1 | 0.00 | 0.00 | 0.00 | 10 | 1018.9 |
| 20260502211706 | 74 | 124 | 0.0 | 4.3 | 0.00 | 0.00 | 0.00 | 11 | 1019.0 |
| 20260502211205 | 73 | 97 | 2.6 | 7.8 | 0.00 | 0.00 | 0.00 | 10 | 1019.1 |
| 20260502210705 | 73 | 93 | 0.9 | 4.3 | 0.00 | 0.00 | 0.00 | 12 | 1019.1 |
| 20260502210205 | 73 | 87 | 1.7 | 7.0 | 0.00 | 0.00 | 0.00 | 10 | 1019.2 |
| 20260502205705 | 73 | 110 | 1.7 | 5.2 | 0.00 | 0.00 | 0.00 | 11 | 1019.4 |
| 20260502205204 | 73 | 36 | 2.6 | 4.3 | 0.00 | 0.00 | 0.00 | 10 | 1019.4 |
| 20260502204705 | 73 | 110 | 0.9 | 5.2 | 0.00 | 0.00 | 0.00 | 11 | 1019.5 |
| 20260502203705 | 73 | 36 | 1.7 | 5.2 | 0.00 | 0.00 | 0.00 | 11 | 1019.5 |
| 20260502202705 | 72 | 125 | 0.0 | 6.1 | 0.00 | 0.00 | 0.00 | 13 | 1019.7 |
| 20260502202205 | 72 | 96 | 0.9 | 5.2 | 0.00 | 0.00 | 0.00 | 14 | 1019.7 |
| 20260502201705 | 71 | 101 | 1.7 | 5.2 | 0.00 | 0.00 | 0.00 | 13 | 1019.8 |
| 20260502201205 | 71 | 61 | 1.7 | 4.3 | 0.00 | 0.00 | 0.00 | 14 | 1019.8 |
| 20260502200705 | 71 | 46 | 1.7 | 2.6 | 0.00 | 0.00 | 0.00 | 14 | 1019.8 |
| 20260502200205 | 71 | 189 | 2.6 | 6.1 | 0.00 | 0.00 | 0.00 | 14 | 1019.9 |
| 20260502195705 | 71 | 88 | 1.7 | 4.3 | 0.00 | 0.00 | 0.00 | 16 | 1020.0 |
| 20260502195205 | 71 | 269 | 0.9 | 2.6 | 0.00 | 0.00 | 0.00 | 15 | 1020.0 |
| 20260502194705 | 70 | 208 | 0.9 | 4.3 | 0.00 | 0.00 | 0.00 | 15 | 1020.0 |
| 20260502194205 | 70 | 165 | 1.7 | 7.0 | 0.00 | 0.00 | 0.00 | 16 | 1020.2 |
| 20260502193705 | 69 | 8 | 2.6 | 6.1 | 0.00 | 0.00 | 0.00 | 15 | 1020.2 |
| 20260502193205 | 70 | 54 | 1.7 | 6.1 | 0.00 | 0.00 | 0.00 | 16 | 1020.2 |
| 20260502192705 | 69 | 94 | 1.7 | 5.2 | 0.00 | 0.00 | 0.00 | 16 | 1020.3 |
| 20260502192205 | 69 | 42 | 0.9 | 6.1 | 0.00 | 0.00 | 0.00 | 17 | 1020.3 |
| 20260502191705 | 69 | 192 | 1.7 | 5.2 | 0.00 | 0.00 | 0.00 | 19 | 1020.4 |
| 20260502191205 | 68 | 164 | 1.7 | 4.3 | 0.00 | 0.00 | 0.00 | 20 | 1020.5 |
| 20260502190705 | 68 | 150 | 4.3 | 7.0 | 0.00 | 0.00 | 0.00 | 16 | 1020.6 |
| 20260502190205 | 68 | 214 | 1.7 | 2.6 | 0.00 | 0.00 | 0.00 | 19 | 1020.6 |
| 20260502185705 | 67 | 38 | 0.9 | 6.1 | 0.00 | 0.00 | 0.00 | 19 | 1020.7 |
| 20260502185205 | 67 | 2 | 1.7 | 7.0 | 0.00 | 0.00 | 0.00 | 18 | 1020.8 |
| 20260502184705 | 66 | 218 | 0.9 | 2.6 | 0.00 | 0.00 | 0.00 | 19 | 1020.8 |
| 20260502184205 | 66 | 101 | 0.9 | 2.6 | 0.00 | 0.00 | 0.00 | 17 | 1021.0 |
| 20260502183705 | 66 | 34 | 0.9 | 2.6 | 0.00 | 0.00 | 0.00 | 17 | 1021.0 |
| 20260502182705 | 66 | 100 | 0.9 | 6.1 | 0.00 | 0.00 | 0.00 | 20 | 1021.2 |
| 20260502182205 | 66 | 97 | 2.6 | 6.1 | 0.00 | 0.00 | 0.00 | 19 | 1021.2 |
| 20260502181705 | 66 | 26 | 1.7 | 5.2 | 0.00 | 0.00 | 0.00 | 19 | 1021.2 |
| 20260502181205 | 66 | 84 | 0.9 | 5.2 | 0.00 | 0.00 | 0.00 | 17 | 1021.3 |
| 20260502180705 | 66 | 182 | 1.7 | 4.3 | 0.00 | 0.00 | 0.00 | 20 | 1021.4 |
| 20260502180204 | 66 | 89 | 2.6 | 5.2 | 0.00 | 0.00 | 0.00 | 19 | 1021.4 |
| 20260502170205 | 64 | 178 | 1.7 | 5.2 | 0.00 | 0.00 | 0.00 | 21 | 1021.9 |
| 20260502163705 | 63 | 188 | 1.7 | 4.3 | 0.00 | 0.00 | 0.00 | 21 | 1021.9 |
| 20260502163204 | 62 | 103 | 0.0 | 2.6 | 0.00 | 0.00 | 0.00 | 22 | 1022.0 |
| 20260502162704 | 62 | 49 | 0.9 | 2.6 | 0.00 | 0.00 | 0.00 | 22 | 1022.0 |
| 20260502162205 | 61 | 44 | 1.7 | 5.2 | 0.00 | 0.00 | 0.00 | 22 | 1022.1 |
| 20260502161205 | 61 | 18 | 0.0 | 2.6 | 0.00 | 0.00 | 0.00 | 23 | 1022.1 |
| 20260502160705 | 61 | 15 | 0.9 | 6.1 | 0.00 | 0.00 | 0.00 | 23 | 1022.1 |
| 20260502160204 | 61 | 46 | 1.7 | 5.2 | 0.00 | 0.00 | 0.00 | 22 | 1022.1 |
| 20260502152205 | 57 | 185 | 1.7 | 2.6 | 0.00 | 0.00 | 0.00 | 28 | 1022.5 |
| 20260502151705 | 56 | 185 | 0.0 | 1.7 | 0.00 | 0.00 | 0.00 | 32 | 1022.5 |
| 20260502151205 | 55 | 185 | 0.0 | 0.9 | 0.00 | 0.00 | 0.00 | 34 | 1022.6 |
| 20260502150705 | 55 | 185 | 0.9 | 2.6 | 0.00 | 0.00 | 0.00 | 34 | 1022.6 |
| 20260502150205 | 54 | 185 | 0.9 | 2.6 | 0.00 | 0.00 | 0.00 | 37 | 1022.7 |
| 20260502130704 | 37 | 185 | 0.0 | 0.0 | 0.00 | 0.00 | 0.00 | 66 | 1022.7 |
| 20260502130204 | 37 | 185 | 0.0 | 0.0 | 0.00 | 0.00 | 0.00 | 66 | 1022.7 |
| 20260502123705 | 37 | 185 | 0.0 | 0.0 | 0.00 | 0.00 | 0.00 | 63 | 1022.6 |
| 20260502122705 | 37 | 185 | 0.0 | 0.0 | 0.00 | 0.00 | 0.00 | 62 | 1022.5 |
| 20260502122205 | 38 | 185 | 0.0 | 0.0 | 0.00 | 0.00 | 0.00 | 60 | 1022.4 |
| 20260502121705 | 38 | 185 | 0.0 | 0.0 | 0.00 | 0.00 | 0.00 | 60 | 1022.4 |
| 20260502121205 | 38 | 185 | 0.0 | 0.0 | 0.00 | 0.00 | 0.00 | 59 | 1022.4 |
| 20260502120705 | 38 | 185 | 0.0 | 0.0 | 0.00 | 0.00 | 0.00 | 59 | 1022.3 |
| 20260502120204 | 39 | 185 | 0.0 | 0.0 | 0.00 | 0.00 | 0.00 | 58 | 1022.3 |
| 20260502115705 | 39 | 185 | 0.0 | 0.0 | 0.00 | 0.00 | 0.00 | 57 | 1022.3 |
| 20260502115204 | 39 | 185 | 0.0 | 0.0 | 0.00 | 0.00 | 0.00 | 57 | 1022.3 |
| 20260502114205 | 39 | 185 | 0.0 | 0.0 | 0.00 | 0.00 | 0.00 | 57 | 1022.2 |
| 20260502113704 | 40 | 185 | 0.0 | 0.0 | 0.00 | 0.00 | 0.00 | 56 | 1022.2 |
| 20260502113204 | 40 | 185 | 0.0 | 0.9 | 0.00 | 0.00 | 0.00 | 55 | 1022.2 |
| 20260502112704 | 40 | 185 | 0.0 | 0.0 | 0.00 | 0.00 | 0.00 | 54 | 1022.2 |
| 20260502111205 | 41 | 185 | 0.0 | 0.0 | 0.00 | 0.00 | 0.00 | 53 | 1022.0 |
| 20260502110704 | 41 | 185 | 0.0 | 0.0 | 0.00 | 0.00 | 0.00 | 52 | 1021.9 |
| 20260502110204 | 41 | 185 | 0.0 | 0.0 | 0.00 | 0.00 | 0.00 | 52 | 1021.9 |
| 20260502105704 | 41 | 185 | 0.0 | 0.0 | 0.00 | 0.00 | 0.00 | 52 | 1022.0 |
| 20260502105205 | 41 | 185 | 0.0 | 0.0 | 0.00 | 0.00 | 0.00 | 52 | 1022.0 |
| 20260502104205 | 41 | 185 | 0.0 | 0.0 | 0.00 | 0.00 | 0.00 | 51 | 1022.0 |
| 20260502103705 | 42 | 185 | 0.0 | 0.0 | 0.00 | 0.00 | 0.00 | 51 | 1022.0 |
| 20260502103205 | 42 | 185 | 0.0 | 0.0 | 0.00 | 0.00 | 0.00 | 51 | 1022.0 |
| 20260502102704 | 42 | 185 | 0.0 | 0.0 | 0.00 | 0.00 | 0.00 | 51 | 1022.0 |
| 20260502102204 | 42 | 185 | 0.0 | 0.0 | 0.00 | 0.00 | 0.00 | 51 | 1022.0 |
| 20260502100704 | 42 | 185 | 0.0 | 0.9 | 0.00 | 0.00 | 0.00 | 52 | 1021.8 |
| 20260502100204 | 42 | 184 | 0.0 | 0.0 | 0.00 | 0.00 | 0.00 | 52 | 1021.8 |
| 20260502091204 | 42 | 215 | 0.0 | 2.6 | 0.00 | 0.00 | 0.00 | 54 | 1021.8 |
| 20260502090704 | 42 | 184 | 0.0 | 0.0 | 0.00 | 0.00 | 0.00 | 54 | 1021.8 |
| 20260502090204 | 42 | 184 | 0.0 | 0.0 | 0.00 | 0.00 | 0.00 | 54 | 1021.8 |
| 20260502071204 | 43 | 205 | 0.0 | 1.7 | 0.00 | 0.00 | 0.00 | 55 | 1022.2 |
| 20260502070703 | 43 | 205 | 0.0 | 0.0 | 0.00 | 0.00 | 0.00 | 55 | 1022.2 |
| 20260502070204 | 43 | 205 | 0.0 | 0.0 | 0.00 | 0.00 | 0.00 | 55 | 1022.2 |
| 20260502065704 | 43 | 205 | 0.0 | 0.0 | 0.00 | 0.00 | 0.00 | 55 | 1022.2 |
| 20260502065204 | 43 | 205 | 0.0 | 0.0 | 0.00 | 0.00 | 0.00 | 54 | 1022.2 |
| 20260502064705 | 44 | 205 | 0.0 | 0.0 | 0.00 | 0.00 | 0.00 | 53 | 1022.3 |
| 20260502064204 | 44 | 205 | 0.0 | 0.0 | 0.00 | 0.00 | 0.00 | 53 | 1022.3 |
| 20260502063704 | 44 | 205 | 0.0 | 0.0 | 0.00 | 0.00 | 0.00 | 53 | 1022.3 |
| 20260502062703 | 45 | 205 | 0.0 | 0.0 | 0.00 | 0.00 | 0.00 | 52 | 1022.2 |
| 20260502061203 | 45 | 205 | 0.0 | 0.0 | 0.00 | 0.00 | 0.00 | 51 | 1022.2 |
| 20260502060705 | 46 | 205 | 0.0 | 0.0 | 0.00 | 0.00 | 0.00 | 51 | 1022.2 |
| 20260502060204 | 46 | 205 | 0.0 | 0.0 | 0.00 | 0.00 | 0.00 | 51 | 1022.2 |
| 20260502055704 | 46 | 205 | 0.0 | 0.0 | 0.00 | 0.00 | 0.00 | 51 | 1022.2 |
| 20260502054703 | 46 | 205 | 0.0 | 0.0 | 0.00 | 0.00 | 0.00 | 50 | 1022.2 |
| 20260502054204 | 47 | 205 | 0.0 | 0.0 | 0.00 | 0.00 | 0.00 | 50 | 1022.1 |
| 20260502053704 | 47 | 205 | 0.0 | 0.0 | 0.00 | 0.00 | 0.00 | 50 | 1022.2 |
| 20260502052204 | 47 | 205 | 0.0 | 0.0 | 0.00 | 0.00 | 0.00 | 50 | 1022.1 |
| 20260502051704 | 47 | 205 | 0.0 | 0.0 | 0.00 | 0.00 | 0.00 | 49 | 1022.1 |
| 20260502051203 | 47 | 205 | 0.0 | 0.0 | 0.00 | 0.00 | 0.00 | 50 | 1022.1 |
| 20260502050704 | 48 | 205 | 0.0 | 0.0 | 0.00 | 0.00 | 0.00 | 50 | 1022.1 |
| 20260502050204 | 48 | 205 | 0.0 | 0.0 | 0.00 | 0.00 | 0.00 | 50 | 1022.2 |
| 20260502045704 | 48 | 205 | 0.0 | 0.0 | 0.00 | 0.00 | 0.00 | 49 | 1022.1 |
| 20260502045204 | 48 | 205 | 0.0 | 0.0 | 0.00 | 0.00 | 0.00 | 49 | 1022.0 |
| 20260502044704 | 48 | 205 | 0.0 | 0.0 | 0.00 | 0.00 | 0.00 | 49 | 1022.0 |
| 20260502044204 | 48 | 205 | 0.0 | 0.0 | 0.00 | 0.00 | 0.00 | 49 | 1022.0 |
| 20260502042704 | 49 | 205 | 0.0 | 0.0 | 0.00 | 0.00 | 0.00 | 48 | 1022.0 |
| 20260502042204 | 49 | 205 | 0.0 | 0.0 | 0.00 | 0.00 | 0.00 | 48 | 1021.9 |
| 20260502041704 | 49 | 205 | 0.0 | 0.0 | 0.00 | 0.00 | 0.00 | 48 | 1021.8 |
| 20260502040704 | 49 | 205 | 0.0 | 0.0 | 0.00 | 0.00 | 0.00 | 46 | 1021.7 |
| 20260502040203 | 50 | 205 | 0.0 | 0.0 | 0.00 | 0.00 | 0.00 | 46 | 1021.7 |
| 20260502035704 | 50 | 205 | 0.0 | 0.0 | 0.00 | 0.00 | 0.00 | 45 | 1021.6 |
| 20260502035204 | 50 | 205 | 0.0 | 0.0 | 0.00 | 0.00 | 0.00 | 44 | 1021.6 |
| 20260502034704 | 50 | 205 | 0.0 | 0.0 | 0.00 | 0.00 | 0.00 | 43 | 1021.5 |
| 20260502034204 | 50 | 205 | 0.0 | 0.0 | 0.00 | 0.00 | 0.00 | 43 | 1021.4 |
| 20260502033703 | 50 | 205 | 0.0 | 0.9 | 0.00 | 0.00 | 0.00 | 42 | 1021.3 |
| 20260502033204 | 51 | 205 | 0.0 | 1.7 | 0.00 | 0.00 | 0.00 | 40 | 1021.2 |
| 20260502032703 | 51 | 17 | 0.0 | 0.9 | 0.00 | 0.00 | 0.00 | 39 | 1021.2 |
| 20260502032204 | 51 | 17 | 0.0 | 0.0 | 0.00 | 0.00 | 0.00 | 37 | 1021.1 |
| 20260502031704 | 51 | 17 | 0.0 | 0.0 | 0.00 | 0.00 | 0.00 | 36 | 1021.0 |
| 20260502031204 | 52 | 17 | 0.0 | 0.0 | 0.00 | 0.00 | 0.00 | 34 | 1021.0 |
| 20260502030704 | 52 | 17 | 0.0 | 0.0 | 0.00 | 0.00 | 0.00 | 33 | 1020.9 |
| 20260502030204 | 52 | 17 | 0.0 | 0.0 | 0.00 | 0.00 | 0.00 | 33 | 1020.8 |
| 20260502025703 | 53 | 17 | 0.0 | 0.0 | 0.00 | 0.00 | 0.00 | 32 | 1020.8 |
| 20260502025203 | 53 | 17 | 0.0 | 0.0 | 0.00 | 0.00 | 0.00 | 31 | 1020.7 |
| 20260502024704 | 54 | 17 | 0.0 | 0.0 | 0.00 | 0.00 | 0.00 | 30 | 1020.6 |
| 20260502024204 | 54 | 17 | 0.0 | 0.0 | 0.00 | 0.00 | 0.00 | 30 | 1020.5 |
| 20260502023204 | 55 | 17 | 0.0 | 0.0 | 0.00 | 0.00 | 0.00 | 27 | 1020.4 |
| 20260502022704 | 55 | 17 | 0.0 | 0.0 | 0.00 | 0.00 | 0.00 | 26 | 1020.3 |
| 20260502022203 | 56 | 17 | 0.0 | 0.0 | 0.00 | 0.00 | 0.00 | 26 | 1020.2 |